Weather in Kuznechikha

Russia / Republic of Tatarstan     54°43′23″N   49°36′50″E
temp.,
°C
wind,
m/s
gust,
m/s
humid.,
%
clouds,
%
prec.,
mm/h
press.,
hPa
HPBL,
m
10 may, mon
mon1000:00+15se4118095 0.6 1013201
03:00+14se41283100 0.6 1014209
06:00+15se2875100 0.2 1016258
09:00+20se5954100 0.2 1017520
12:00+23se564195 0.0 10181444
15:00+24ese453998 0.0 10182372
18:00+20ene4863100 0.0 1019151
21:00+16ene4661100 0.0 102186
11 may, tue
tue1100:00+15e4665100 0.0 102188
03:00+14e3566100 0.0 102261
06:00+15e3669100 0.0 1023130
09:00+21e4650100 0.0 1024483
12:00+24ese4540100 0.0 10252277
15:00+24se4438100 0.0 10252356
18:00+21se3358100 0.0 102642
21:00+18e3461100 0.0 102758
12 may, wed
wed1200:00+16ese236596 0.0 102724
03:00+15e22666 0.0 102723
06:00+17ese35677 0.0 1027147
09:00+22ese464946 0.0 1027811
12:00+24ese573888 0.0 10272717
15:00+24sse354025 0.0 10272114
18:00+21wsw11588 0.0 102720
21:00+17ese2264100 0.0 102716
13 may, thu
thu1300:00+15ese34586 0.0 102746
03:00+14ese35615 0.0 102761
06:00+16ese4865100 0.0 1027182
09:00+21ese58455 0.0 1027927
12:00+24se57375 0.0 10261589
15:00+24se5639100 0.0 10251729
18:00+21ese3761100 0.0 1025144
21:00+17se496510 0.0 1025127
14 may, fri
fri1400:00+16se486470 0.0 1025113
03:00+15se476368 0.0 102597
06:00+17se496576 0.0 1025197
09:00+22sse574899 0.0 1025483
12:00+26sse5736100 0.0 10241297
15:00+25sse474298 0.0 10231146
18:00+23sse365699 0.0 1022110
21:00+18sse476297 0.0 102294